Date String (YYYY-MM-DD hh:mm:ss) UTC,Instrument flags,absolute air pressure of the measurement (hPa),sample flow rate (lpm),inlet stack bypass flow (lpm),air temperature of the measurement (°C),ambient temperature measured by the external sensor (°C),aerosol sample conditioner tube jacket temperature (°C),OPC LED temperature (°C),internal box temperature (°C),relative humidity of the measurement (%),span deviation,mass concentration of particles derived from Lorenz-Mie calculation of OPC scattering (μg/m³),mass concentration of particles derived from Lorenz-Mie calculation of OPC scattering (μg/m³),mass concentration of particles derived from Lorenz-Mie calculation of OPC scattering (μg/m³)
DateTimeUTC,F1_M11,P_M11,Q1_M11,Q2_M11,T1_M11,T2_M11,T3_M11,T4_M11,T5_M11,U1_M11,ZSPAN_M11,X2_M11,X0_M11,X1_M11
2024-02-18 00:00:00,SystemResetWarning,0831.5,5.01,000.00,018.3,017.4,000.0,027.0,020.0,12.9,0000.0,0004.42,0008.37,0004.16
2024-02-18 00:01:00,SystemResetWarning,0831.4,4.99,000.00,018.3,017.4,000.0,027.0,020.0,12.7,0000.0,0004.43,0008.44,0004.15
2024-02-18 00:02:00,SystemResetWarning,0831.4,4.99,000.00,018.3,017.4,000.0,027.0,020.0,12.6,0000.0,0004.44,0008.89,0004.16
2024-02-18 00:03:00,SystemResetWarning,0831.4,4.99,000.00,018.3,017.4,000.0,027.0,020.0,12.5,-000.7,0004.44,0009.35,0004.17
2024-02-18 00:04:00,SystemResetWarning,0831.4,5.02,000.00,018.3,017.4,000.0,027.0,020.0,12.6,0000.0,0004.44,0009.35,0004.16
2024-02-18 00:05:00,SystemResetWarning,0831.4,5.01,000.00,018.3,017.4,000.0,027.0,020.0,12.6,-001.0,0004.42,0008.86,0004.14
2024-02-18 00:06:00,SystemResetWarning,0831.3,4.99,000.00,018.3,017.4,000.0,027.0,020.0,12.6,-000.7,0004.41,0009.36,0004.12
2024-02-18 00:07:00,SystemResetWarning,0831.4,4.98,000.00,018.3,017.4,000.0,027.0,020.0,12.8,-000.4,0004.40,0009.35,0004.11
2024-02-18 00:08:00,SystemResetWarning,0831.4,5.00,000.00,018.3,017.4,000.0,027.0,020.0,12.9,0000.0,0004.40,0009.33,0004.10
2024-02-18 00:09:00,SystemResetWarning,0831.4,5.01,000.00,018.3,017.4,000.0,027.0,020.0,13.0,0000.0,0004.38,0009.26,0004.11
2024-02-18 00:10:00,SystemResetWarning,0831.3,5.01,000.00,018.3,017.4,000.0,027.0,020.0,12.8,0000.0,0004.40,0009.54,0004.12
2024-02-18 00:11:00,SystemResetWarning,0831.4,4.99,000.00,018.3,017.4,000.0,027.0,020.0,12.8,0000.0,0004.40,0009.58,0004.12
2024-02-18 00:12:00,SystemResetWarning,0831.4,4.99,000.00,018.3,017.4,000.0,027.0,020.0,12.8,0000.0,0004.39,0009.50,0004.14
2024-02-18 00:13:00,SystemResetWarning,0831.3,5.00,000.00,018.3,017.4,000.0,027.0,020.0,12.9,0000.0,0004.38,0009.04,0004.13
2024-02-18 00:14:00,SystemResetWarning,0831.3,5.00,000.00,018.3,017.4,000.0,027.0,020.0,12.8,0000.0,0004.37,0008.51,0004.13
2024-02-18 00:15:00,SystemResetWarning,0831.3,5.00,000.00,018.3,017.4,000.0,027.0,020.0,12.9,0000.0,0004.36,0008.50,0004.12
2024-02-18 00:16:00,SystemResetWarning,0831.4,5.02,000.00,018.3,017.4,000.0,027.0,020.0,12.9,0000.0,0004.36,0008.33,0004.13
2024-02-18 00:17:00,SystemResetWarning,0831.4,5.00,000.00,018.3,017.5,000.0,027.0,020.0,12.9,0000.0,0004.36,0008.82,0004.13
2024-02-18 00:18:00,SystemResetWarning,0831.4,5.00,000.00,018.3,017.4,000.0,027.0,020.0,12.9,0000.0,0004.37,0008.89,0004.13
2024-02-18 00:19:00,SystemResetWarning,0831.4,4.99,000.00,018.3,017.5,000.0,027.0,020.0,12.9,0000.0,0004.41,0009.08,0004.14
2024-02-18 00:20:00,SystemResetWarning,0831.3,5.00,000.00,018.3,017.5,000.0,027.0,020.0,12.9,0000.0,0004.41,0009.40,0004.14
2024-02-18 00:21:00,SystemResetWarning,0831.4,5.01,000.00,018.3,017.5,000.0,026.9,020.0,13.0,0000.0,0004.39,0009.37,0004.14
2024-02-18 00:22:00,SystemResetWarning,0831.4,5.01,000.00,018.3,017.5,000.0,026.9,020.0,12.9,0000.0,0004.38,0008.80,0004.13
2024-02-18 00:23:00,SystemResetWarning,0831.3,4.99,000.00,018.3,017.5,000.0,026.9,020.0,13.1,0000.0,0004.39,0008.83,0004.13
2024-02-18 00:24:00,SystemResetWarning,0831.4,4.99,000.00,018.3,017.5,000.0,026.9,020.0,13.3,0000.0,0004.41,0008.94,0004.13
2024-02-18 00:25:00,SystemResetWarning,0831.4,5.02,000.00,018.3,017.5,000.0,026.9,020.0,13.5,0000.0,0004.43,0009.29,0004.13
2024-02-18 00:26:00,SystemResetWarning,0831.3,5.01,000.00,018.3,017.5,000.0,026.9,020.0,13.6,0000.0,0004.42,0009.47,0004.13
2024-02-18 00:27:00,SystemResetWarning,0831.4,5.00,000.00,018.3,017.5,000.0,026.9,020.0,13.7,0000.0,0004.46,0009.57,0004.14
2024-02-18 00:28:00,SystemResetWarning,0831.4,4.99,000.00,018.3,017.5,000.0,026.9,020.0,13.6,0000.0,0004.47,0008.85,0004.14
2024-02-18 00:29:00,SystemResetWarning,0831.4,5.00,000.00,018.3,017.5,000.0,026.9,020.0,13.3,0000.0,0004.48,0008.44,0004.14
2024-02-18 00:30:00,SystemResetWarning,0831.4,4.99,000.00,018.3,017.5,000.0,027.0,020.0,13.4,0000.0,0004.45,0008.27,0004.13
2024-02-18 00:31:00,SystemResetWarning,0831.4,5.01,000.00,018.3,017.5,000.0,026.9,020.0,13.5,0000.0,0004.42,0008.06,0004.13
2024-02-18 00:32:00,SystemResetWarning,0831.4,5.01,000.00,018.3,017.5,000.0,026.9,020.0,13.6,0000.0,0004.44,0007.63,0004.13
2024-02-18 00:33:00,SystemResetWarning,0831.4,4.98,000.00,018.3,017.5,000.0,026.9,020.0,13.6,0000.0,0004.47,0007.70,0004.16
2024-02-18 00:34:00,SystemResetWarning,0831.4,4.99,000.00,018.3,017.5,000.0,026.9,020.0,13.5,0000.0,0004.51,0007.78,0004.20
2024-02-18 00:35:00,SystemResetWarning,0831.4,5.01,000.00,018.3,017.6,000.0,026.9,020.0,13.5,0000.0,0004.54,0008.08,0004.23
2024-02-18 00:36:00,SystemResetWarning,0831.4,5.02,000.00,018.3,017.6,000.0,026.9,020.0,13.4,0000.0,0004.57,0007.82,0004.27
2024-02-18 00:37:00,SystemResetWarning,0831.5,4.99,000.00,018.3,017.6,000.0,026.9,020.0,13.4,0000.0,0004.60,0007.65,0004.30
2024-02-18 00:38:00,SystemResetWarning,0831.4,4.99,000.00,018.3,017.6,000.0,026.9,020.0,13.5,0000.0,0004.60,0007.81,0004.32
2024-02-18 00:39:00,SystemResetWarning,0831.5,5.00,000.00,018.3,017.6,000.0,026.9,020.0,13.4,0000.0,0004.62,0007.89,0004.35
2024-02-18 00:40:00,SystemResetWarning,0831.4,5.02,000.00,018.3,017.6,000.0,026.9,020.0,13.3,0000.0,0004.65,0007.91,0004.38
2024-02-18 00:41:00,SystemResetWarning,0831.4,4.99,000.00,018.3,017.6,000.0,026.9,020.0,13.1,0000.0,0004.71,0008.37,0004.42
2024-02-18 00:42:00,SystemResetWarning,0831.4,4.99,000.00,018.3,017.6,000.0,026.9,020.0,12.9,0000.0,0004.78,0008.80,0004.46
2024-02-18 00:43:00,SystemResetWarning,0831.3,4.99,000.00,018.3,017.6,000.0,026.9,020.0,12.8,0000.0,0004.82,0008.79,0004.50
2024-02-18 00:44:00,SystemResetWarning,0831.4,5.01,000.00,018.3,017.6,000.0,026.9,020.0,12.9,0000.0,0004.85,0008.77,0004.52
2024-02-18 00:45:00,SystemResetWarning,0831.4,5.00,000.00,018.3,017.6,000.0,026.9,020.0,13.0,0000.0,0004.86,0008.80,0004.53
2024-02-18 00:46:00,SystemResetWarning,0831.4,5.00,000.00,018.3,017.6,000.0,026.9,020.0,13.1,0000.0,0004.86,0008.47,0004.54
2024-02-18 00:47:00,SystemResetWarning,0831.4,5.01,000.00,018.3,017.6,000.0,027.0,020.0,13.1,0000.0,0004.88,0008.58,0004.55
2024-02-18 00:48:00,SystemResetWarning,0831.4,5.01,000.00,018.3,017.5,000.0,027.0,020.0,13.1,0000.0,0004.92,0008.66,0004.58
2024-02-18 00:49:00,SystemResetWarning,0831.4,5.00,000.00,018.3,017.5,000.0,027.0,020.0,13.2,0000.8,0004.94,0008.45,0004.59
2024-02-18 00:50:00,SystemResetWarning,0831.5,4.99,000.00,018.3,017.5,000.0,027.0,020.0,13.2,0002.0,0004.93,0008.33,0004.59
2024-02-18 00:51:00,SystemResetWarning,0831.5,5.00,000.00,018.3,017.5,000.0,027.0,020.0,13.2,0002.5,0004.95,0008.66,0004.59
2024-02-18 00:52:00,SystemResetWarning,0831.4,5.00,000.00,018.3,017.5,000.0,026.9,020.0,13.2,0003.9,0004.92,0008.33,0004.58
2024-02-18 00:53:00,SystemResetWarning,0831.4,5.00,000.00,018.3,017.5,000.0,026.9,020.0,13.4,0004.1,0004.89,0007.94,0004.56
2024-02-18 00:54:00,SystemResetWarning,0831.4,5.00,000.00,018.3,017.5,000.0,026.9,020.0,13.5,0004.0,0004.88,0008.04,0004.55
2024-02-18 00:55:00,SystemResetWarning,0831.4,5.00,000.00,018.3,017.5,000.0,026.9,020.0,13.5,0003.8,0004.89,0008.79,0004.55
2024-02-18 00:56:00,SystemResetWarning,0831.5,5.01,000.00,018.3,017.5,000.0,026.9,020.0,13.7,0001.6,0004.91,0008.87,0004.55
2024-02-18 00:57:00,SystemResetWarning,0831.5,5.01,000.00,018.3,017.5,000.0,026.9,020.0,13.8,0003.1,0004.92,0009.21,0004.55
2024-02-18 00:58:00,SystemResetWarning,0831.5,5.00,000.00,018.3,017.6,000.0,026.9,020.0,14.0,0001.1,0004.93,0010.01,0004.54
2024-02-18 00:59:00,SystemResetWarning,0831.5,5.00,000.00,018.3,017.6,000.0,026.9,020.0,14.2,0000.0,0004.90,0010.12,0004.52
